Location: Byszew
(52.1813°N, 19.2693°E)
Time: 00:02:44
(UTC+00:00)

Cosmos 2322 Rocket - Pass Details

Date: 03 July 2021
Orbit: 833 x 850 km, 71.0° (Epoch: 26 July)

Event Time Altitude Azimuth Distance (km) Brightness Sun altitude
Rises 21:03:54 0° 308° (NW) 3,423 6.6 -11.6°
Reaches altitude 10° 21:08:33 10° 343° (NNW) 2,485 6.2 -11.9°
Maximum altitude 21:10:14 11° 0° (N) 2,396 5.7 -12.0°
Drops below altitude 10° 21:11:54 10° 18° (NNE) 2,482 5.4 -12.1°
Sets 21:16:32 0° 52° (NE) 3,412 5.6 -12.4°
